Flag for Germany Weather past 2 weeks in Sinsheim, Baden-Württemberg, Germany

Now
73 °F

Sunny.


Feels Like: 77 °F
Forecast: 58 / 82 °F
Wind: 7 mph from North

Location: Baden Wurttemberg - Neuostheim

Current Time: Jul 31, 2015 at 6:22:51 PM

Latest Report: Jul 31, 2015 at 5:50 PM


Visibility: 10 mi

Pressure: 29.98 "Hg

Humidity: 31%

Dew point: 41 °F

Location of SinsheimLocation

Historic Weather in Sinsheim — Graph

°F

Sinsheim temperature yesterday

Maximum temperature yesterday: 73 °F (at 5:20 PM)
Minimum temperature yesterday: 50 °F (at 5:50 AM)
Average temperature yesterday: 64 °F

Past Weeks' High & Low Weather Summary

 TemperatureHumidityPressure
High95 °F (Jul 17, 3:50 PM)100% (Jul 19, 2:50 PM)30.12 "Hg (Jul 19, 2:50 PM)
Low50 °F (Jul 30, 5:50 AM)19% (Jul 16, 7:50 PM)29.65 "Hg (Jul 24, 7:50 PM)
Average74 °F53%29.91 "Hg
* Reported Jul 16 4:20 PM — Jul 31 4:50 PM, Sinsheim, Weather by CustomWeather, © 2015

Note: Actual official high and low records may vary slightly from our data, if they occured in-between our weather recording intervals... More about our weather records

Advertising

Sinsheim weather history for previous 24 hours

 ConditionsComfort  
Time TempWeatherWind HumidityBarometerVisibility
4:50 PM
Fri, Jul 31
73 °FSunny.6 mph33%30.01 "Hg10 mi
4:20 PM73 °FSunny.7 mph33%30.01 "Hg10 mi
3:50 PM72 °FSunny.6 mph36%30.01 "Hg10 mi
3:20 PM72 °FPassing clouds.5 mph38%30.04 "HgN/A
2:50 PM70 °FPassing clouds.7 mph38%30.04 "HgN/A
2:20 PM70 °FPassing clouds.6 mph38%30.04 "HgN/A
1:50 PM68 °FScattered clouds.6 mph43%30.07 "HgN/A
1:20 PM70 °FScattered clouds.5 mph40%30.07 "HgN/A
12:50 PM68 °FScattered clouds.5 mph43%30.09 "HgN/A
12:20 PM68 °FScattered clouds.6 mph43%30.09 "HgN/A
11:50 AM66 °FScattered clouds.8 mph46%30.09 "HgN/A
11:20 AM66 °FScattered clouds.7 mph49%30.09 "HgN/A
10:50 AM64 °FPassing clouds.6 mph52%30.09 "HgN/A
10:20 AM63 °FPassing clouds.6 mph59%30.12 "HgN/A
9:20 AM59 °FPassing clouds.7 mph72%30.12 "HgN/A
8:50 AM57 °FPassing clouds.8 mph72%30.12 "HgN/A
8:20 AM55 °FSunny.8 mph77%30.12 "Hg10 mi
7:50 AM55 °FPassing clouds.7 mph77%30.12 "HgN/A
7:20 AM54 °FSunny.5 mph82%30.12 "Hg10 mi
6:50 AM52 °FClear.6 mph88%30.12 "Hg10 mi
6:20 AM52 °FClear.5 mph88%30.09 "Hg10 mi
5:50 AM52 °FClear.3 mph88%30.09 "Hg10 mi
8:50 PM
Thu, Jul 30
63 °FPassing clouds.9 mph56%30.04 "HgN/A
8:20 PM64 °FPassing clouds.13 mph52%30.04 "HgN/A
7:50 PM66 °FMostly cloudy.14 mph46%30.01 "HgN/A
7:20 PM68 °FPassing clouds.14 mph40%29.98 "HgN/A
6:50 PM72 °FPassing clouds.10 mph27%29.98 "HgN/A
6:20 PM72 °FPassing clouds.9 mph25%29.98 "HgN/A
Weather by CustomWeather, © 2015

See weather overviewHow to use our weather pages